TimeCST,TemperatureF,Dew PointF,Humidity,Sea Level PressureIn,VisibilityMPH,Wind Direction,Wind SpeedMPH,Gust SpeedMPH,PrecipitationIn,Events,Conditions,WindDirDegrees,DateUTC
12:53 AM,46.0,42.1,86,30.19,7.0,Calm,Calm,-,N/A,,Clear,0,2012-11-22 06:53:00
1:53 AM,42.1,39.9,92,30.19,4.0,Calm,Calm,-,N/A,,Clear,0,2012-11-22 07:53:00
2:53 AM,45.0,41.0,86,30.19,4.0,Calm,Calm,-,N/A,,Clear,0,2012-11-22 08:53:00
3:53 AM,46.0,42.1,86,30.18,8.0,SSE,3.5,-,N/A,,Clear,160,2012-11-22 09:53:00
4:53 AM,50.0,46.0,86,30.18,8.0,South,5.8,-,N/A,,Clear,170,2012-11-22 10:53:00
5:53 AM,48.0,45.0,89,30.19,7.0,Calm,Calm,-,N/A,,Clear,0,2012-11-22 11:53:00
6:53 AM,46.0,42.1,86,30.19,6.0,SSE,3.5,-,N/A,,Clear,160,2012-11-22 12:53:00
7:53 AM,51.1,46.9,86,30.22,7.0,South,4.6,-,N/A,,Clear,170,2012-11-22 13:53:00
8:53 AM,57.0,48.9,74,30.23,10.0,South,4.6,-,N/A,,Clear,170,2012-11-22 14:53:00
9:53 AM,63.0,48.9,60,30.24,10.0,South,8.1,-,N/A,,Clear,190,2012-11-22 15:53:00
10:53 AM,66.0,48.9,54,30.22,10.0,South,9.2,-,N/A,,Clear,180,2012-11-22 16:53:00
11:53 AM,69.1,46.9,45,30.18,10.0,Variable,4.6,-,N/A,,Clear,0,2012-11-22 17:53:00
12:53 PM,71.1,46.0,41,30.15,10.0,Variable,6.9,-,N/A,,Clear,0,2012-11-22 18:53:00
1:53 PM,71.1,42.1,35,30.13,10.0,South,9.2,-,N/A,,Clear,180,2012-11-22 19:53:00
2:53 PM,71.1,44.1,38,30.12,10.0,Variable,4.6,-,N/A,,Clear,0,2012-11-22 20:53:00
3:53 PM,71.1,44.1,38,30.12,10.0,South,6.9,-,N/A,,Clear,190,2012-11-22 21:53:00
4:53 PM,66.9,46.0,47,30.12,10.0,Calm,Calm,-,N/A,,Clear,0,2012-11-22 22:53:00
5:53 PM,61.0,46.0,58,30.12,10.0,Calm,Calm,-,N/A,,Clear,0,2012-11-22 23:53:00
6:53 PM,59.0,46.0,62,30.13,10.0,South,3.5,-,N/A,,Clear,190,2012-11-23 00:53:00
7:53 PM,57.9,46.0,65,30.14,10.0,South,4.6,-,N/A,,Clear,180,2012-11-23 01:53:00
8:53 PM,60.1,44.1,55,30.13,10.0,South,4.6,-,N/A,,Clear,180,2012-11-23 02:53:00
9:53 PM,61.0,44.1,54,30.14,10.0,South,5.8,-,N/A,,Clear,190,2012-11-23 03:53:00
10:53 PM,63.0,42.1,46,30.13,10.0,SSW,10.4,-,N/A,,Clear,210,2012-11-23 04:53:00
11:53 PM,63.0,42.1,46,30.14,10.0,SSW,9.2,-,N/A,,Clear,210,2012-11-23 05:53:00